Weather Roundup
Issued by NWS

Home | Current Version | Previous Version | Graphics & Text | Print | Product List | Glossary Off
Versions: 1 2 3 4 5 6 7 8 9 10 11 12 13 14 15 16 17 18 19 20 21 22 23 24 25 26 27 28 29 30 31 32 33 34 35 36 37 38 39 40 41 42 43 44 45 46 47 48 49 50

830
NZUS93 KARX 030059
HRRWXR

CURRENT HOURLY OBSERVATIONS ACROSS
MUCH OF THE UPPER MISSISSIPPI VALLEY
NATIONAL WEATHER SERVICE LA CROSSE WI
700 PM CST FRI DEC 02 2016


...SOUTHEAST MINNESOTA...


CITY           SKY/WX    TMP DP  RH WIND       PRES   REMARKS
ROCHESTER      CLOUDY    29  24  82 NW13      30.27F WCI  19
ROCHESTER/MAYO CLOUDY    30  23  76 NW9       30.28F WCI  21
WINONA         CLOUDY    34  25  69 NW8       30.30S WCI  27
AUSTIN         CLOUDY    28  21  74 NW7       30.29R WCI  21
ALBERT LEA     CLOUDY    32  27  80 W10       30.29R WCI  24
DODGE CENTER   CLOUDY    27  21  80 NW8       30.27F WCI  18
PRESTON        CLOUDY    28  21  75 NW7       30.28S WCI  21
OWATONNA       CLOUDY    28  23  80 W10       30.28F WCI  19
FARIBAULT      CLOUDY    28  23  80 NW6       30.29F WCI  22
$$

...ELSEWHERE IN MINNESOTA...


CITY           SKY/WX    TMP DP  RH WIND       PRES   REMARKS
MINNEAPOLIS    CLOUDY    31  23  72 W9        30.29S WCI  23
INTNL FALLS    CLOUDY    23  20  88 NW8       30.24R WCI  14
DULUTH         CLOUDY    29  24  82 NW5       30.22R WCI  24
RED WING       CLOUDY    34  21  60 W6        30.28S WCI  29
REDWOOD FALLS  CLOUDY    29  20  69 NW5       30.30S WCI  24
MANKATO        CLOUDY    29  22  75 NW8       30.30F WCI  21
WORTHINGTON    CLOUDY    29  23  78 NW15      30.29S WCI  18
FAIRMONT       CLOUDY    30  25  81 N5        30.31R WCI  25
$$

...SOUTHWEST WISCONSIN...


CITY           SKY/WX    TMP DP  RH WIND       PRES   REMARKS
LA CROSSE      CLOUDY    35  23  61 NW10      30.29S WCI  27
PRAIRIE DU CHI CLOUDY    32  22  66 W6        30.30R WCI  27
BOSCOBEL       CLOUDY    34  23  64 CALM      30.30R
LONE ROCK      NOT AVBL
PLATTEVILLE    CLOUDY    32  27  82 NW7       30.29R WCI  26
FORT MC COY    CLOUDY    32  24  72 NW6       30.29S WCI  26
MAUSTON-NEW LI CLOUDY    31  24  73 W5        30.27S WCI  27
VIROQUA        CLOUDY    30  24  77 NW7       30.26S WCI  23
WIS DELLS      CLOUDY    31  22  69 NW6       30.27R WCI  25
$$

...ELSEWHERE IN WISCONSIN...


CITY           SKY/WX    TMP DP  RH WIND       PRES   REMARKS
MILWAUKEE      CLOUDY    35  23  61 NW9       30.26S WCI  28
MADISON        CLOUDY    31  22  69 NW8       30.27R WCI  23
GREEN BAY      CLOUDY    36  29  75 W7        30.25R WCI  30
EAU CLAIRE     NOT AVBL
BLACK RVR FLS  CLOUDY    32  23  69 CALM      30.28S
MEDFORD        CLOUDY    28  23  80 W5        30.23S WCI  23
WAUSAU         CLOUDY    31  24  75 W8        30.23R WCI  23
WIS RAPIDS     CLOUDY    31  23  72 NW5       30.28R WCI  26
MARSHFIELD     CLOUDY    30  22  72 W5        30.25R WCI  25
RICE LAKE      CLOUDY    30  24  78 W3        30.28S
$$

...NORTHEAST IOWA...


CITY           SKY/WX    TMP DP  RH WIND       PRES   REMARKS
WATERLOO       CLOUDY    32  24  72 NW5       30.32R WCI  27
DUBUQUE        CLOUDY    31  24  75 NW13      30.29R WCI  21
DECORAH        CLOUDY    30  23  74 NW8       30.28R WCI  23
MASON CITY     CLOUDY    30  24  78 NW12      30.32R WCI  20
CHARLES CITY   CLOUDY    30  25  80 NW8       30.31R WCI  23
OELWEIN        CLOUDY    30  25  80 NW8       30.31R WCI  23
$$

...ELSEWHERE IN IOWA...


CITY           SKY/WX    TMP DP  RH WIND       PRES   REMARKS
DES MOINES     CLOUDY    38  33  82 N5        30.33R WCI  34
IOWA CITY      CLOUDY    36  26  67 NW6       30.34R WCI  31
FORT DODGE     CLOUDY    34  23  64 CALM      30.33R
MARSHALLTOWN   CLOUDY    33  29  85 CALM      30.32R
CEDAR RAPIDS   CLOUDY    33  27  78 N7        30.31R WCI  27
$$

...NORTHERN ILLINOIS...


CITY           SKY/WX    TMP DP  RH WIND       PRES   REMARKS
CHICAGO-OHARE  CLOUDY    36  25  64 N8        30.28R WCI  30
CHICAGO-MIDWAY CLOUDY    38  25  59 W9        30.28R WCI  31
MOLINE         CLOUDY    37  25  61 NW8       30.31S WCI  31
ROCKFORD       CLOUDY    34  23  64 W8        30.31R WCI  27
PEORIA         CLOUDY    39  29  67 VRB5      30.32R
$$

NOTE: "FAIR" INDICATES FEW OR NO CLOUDS BELOW 12,000 FEET WITH NO
SIGNIFICANT WEATHER AND/OR OBSTRUCTIONS TO VISIBILITY. WIND
SPEEDS ARE IN MILES-PER-HOUR.




USA.gov is the U.S. government's official web portal to all federal, state and local government web resources and services.